sat.trackr.live / text

‹ back to catalog

STARLINK-37094

NORAD 68241 · 2026-054K

PAYLOAD ACTIVE UNKNOWN

§ Identity

Operator
Country
US
Launch date
2026-03-17
Launch site
AFETR
Launch vehicle
Mass (kg)
RCS (m²)

Purposes: comms

External: N2YO · Heavens-Above · Gunter

§ Orbital elements

Epoch: 2026-05-25T03:14:27.944160Z

Period
94.11 min
Inclination
53.1586°
Eccentricity
0.0001252
Mean motion
15.30204145 rev/d
Perigee alt
474.3 km
Apogee alt
476.1 km
Semi-major
6,853.3 km
B*
7.9799e-4
RAAN
301.9945°
Arg perigee
79.3046°
Mean anomaly
280.8096°
Rev number
1,069

§ Raw data

STARLINK-370941 68241U 26054K   26145.13504565  .00023352  00000+0  79799-3 0  99932 68241  53.1586 301.9945 0001252  79.3046 280.8096 15.30204145 10695

JSON: /api/v1/satellites/68241 · /tle

For live sub-satellite position, see the globe view (requires WebGL).

§ Visibility from observer

Set your observer location to see the next 7 days of passes ≥ 10°. The values pass through the URL so the page stays shareable.

No JS? Fill the form by hand. The geolocation button needs JavaScript.